Hourly Weather Klajpedka

Today, 30 July, Friday

Time Temperature Precipitation Wind Pressure Humidity
00:00 +16°C° 0 mm 3 mps 733 mmHg 86%
01:00 +16°C° 0 mm 3 mps 733 mmHg 86%
02:00 +16°C° 0 mm 3 mps 733 mmHg 86%
03:00 +14°C° 0 mm 3 mps 733 mmHg 88%
04:00 +13°C° 0 mm 3 mps 733 mmHg 89%
05:00 +12°C° 0 mm 3 mps 733 mmHg 90%
06:00 +14°C° 0 mm 4 mps 733 mmHg 82%
07:00 +15°C° 0 mm 5 mps 733 mmHg 74%
08:00 +17°C° 0 mm 5 mps 733 mmHg 65%
09:00 +19°C° 0 mm 6 mps 733 mmHg 59%
10:00 +20°C° 0 mm 6 mps 733 mmHg 54%
11:00 +21°C° 0 mm 7 mps 733 mmHg 48%
12:00 +22°C° 0 mm 7 mps 732 mmHg 45%
13:00 +23°C° 0 mm 8 mps 732 mmHg 43%
14:00 +23°C° 0 mm 8 mps 732 mmHg 40%
15:00 +23°C° 0 mm 7 mps 732 mmHg 42%
16:00 +23°C° 0 mm 7 mps 731 mmHg 44%
17:00 +23°C° 0 mm 6 mps 731 mmHg 45%
18:00 +21°C° 0 mm 5 mps 731 mmHg 50%
19:00 +20°C° 0 mm 4 mps 731 mmHg 55%
20:00 +18°C° 0 mm 3 mps 731 mmHg 60%
21:00 +17°C° 0 mm 3 mps 731 mmHg 63%
22:00 +16°C° 0 mm 3 mps 731 mmHg 66%
23:00 +14°C° 0 mm 3 mps 731 mmHg 69%

Tomorrow, 31 July, Saturday

Time Temperature Precipitation Wind Pressure Humidity
00:00 +14°C° 0 mm 3 mps 731 mmHg 71%
01:00 +13°C° 0 mm 3 mps 731 mmHg 72%
02:00 +13°C° 0 mm 3 mps 731 mmHg 74%
03:00 +12°C° 0 mm 3 mps 731 mmHg 75%
04:00 +12°C° 0 mm 3 mps 731 mmHg 76%
05:00 +12°C° 0 mm 3 mps 731 mmHg 77%
06:00 +14°C° 0 mm 4 mps 732 mmHg 73%
07:00 +15°C° 0 mm 4 mps 732 mmHg 69%
08:00 +18°C° 0 mm 4 mps 732 mmHg 64%
09:00 +19°C° 0 mm 4 mps 732 mmHg 60%
10:00 +21°C° 0 mm 4 mps 732 mmHg 55%
11:00 +22°C° 0 mm 4 mps 732 mmHg 51%
12:00 +23°C° 0 mm 4 mps 732 mmHg 49%
13:00 +25°C° 0 mm 4 mps 732 mmHg 48%
14:00 +26°C° 0 mm 4 mps 732 mmHg 47%
15:00 +26°C° 0 mm 3 mps 732 mmHg 48%
16:00 +26°C° 0 mm 3 mps 731 mmHg 48%
17:00 +26°C° 0 mm 2 mps 731 mmHg 49%
18:00 +25°C° 0 mm 2 mps 731 mmHg 55%
19:00 +23°C° 0 mm 2 mps 730 mmHg 61%
20:00 +21°C° 0 mm 2 mps 730 mmHg 67%
21:00 +20°C° 0.4 mm 2 mps 730 mmHg 75%
22:00 +19°C° 0.4 mm 2 mps 730 mmHg 83%
23:00 +17°C° 0.4 mm 3 mps 731 mmHg 90%

Day after tomorrow, 1 August, Sunday

Time Temperature Precipitation Wind Pressure Humidity
00:00 +17°C° 0 mm 3 mps 731 mmHg 91%
01:00 +16°C° 0 mm 3 mps 731 mmHg 92%
02:00 +14°C° 0 mm 3 mps 731 mmHg 93%
03:00 +14°C° 0 mm 3 mps 731 mmHg 91%
04:00 +13°C° 0 mm 3 mps 731 mmHg 90%
05:00 +13°C° 0 mm 3 mps 731 mmHg 89%
06:00 +14°C° 0 mm 4 mps 731 mmHg 84%
07:00 +15°C° 0 mm 4 mps 732 mmHg 79%
08:00 +16°C° 0 mm 5 mps 732 mmHg 73%
09:00 +19°C° 0 mm 5 mps 732 mmHg 67%
10:00 +20°C° 0 mm 5 mps 732 mmHg 60%
11:00 +22°C° 0 mm 5 mps 733 mmHg 54%
12:00 +22°C° 0 mm 5 mps 733 mmHg 52%
13:00 +23°C° 0 mm 5 mps 733 mmHg 50%
14:00 +25°C° 0 mm 5 mps 733 mmHg 48%
15:00 +22°C° 0.1 mm 5 mps 733 mmHg 56%
16:00 +21°C° 0.1 mm 4 mps 733 mmHg 64%
17:00 +19°C° 0.1 mm 4 mps 733 mmHg 71%
18:00 +18°C° 0.4 mm 3 mps 733 mmHg 77%
19:00 +16°C° 0.4 mm 2 mps 732 mmHg 82%
20:00 +15°C° 0.4 mm 1 mps 732 mmHg 87%
21:00 +15°C° 0.3 mm 1 mps 732 mmHg 88%
22:00 +14°C° 0.3 mm 1 mps 732 mmHg 88%
23:00 +14°C° 0.3 mm 1 mps 732 mmHg 89%

2 August, Monday

Time Temperature Precipitation Wind Pressure Humidity
00:00 +14°C° 0 mm 1 mps 732 mmHg 90%
01:00 +13°C° 0 mm 1 mps 732 mmHg 91%
02:00 +13°C° 0 mm 1 mps 731 mmHg 92%
03:00 +13°C° 0 mm 1 mps 731 mmHg 92%
04:00 +13°C° 0 mm 1 mps 731 mmHg 92%
05:00 +13°C° 0 mm 2 mps 731 mmHg 92%
06:00 +14°C° 0.6 mm 2 mps 731 mmHg 94%
07:00 +14°C° 0.6 mm 2 mps 731 mmHg 96%
08:00 +14°C° 0.6 mm 2 mps 731 mmHg 97%
09:00 +15°C° 0.7 mm 2 mps 731 mmHg 94%
10:00 +15°C° 0.7 mm 2 mps 732 mmHg 91%
11:00 +16°C° 0.7 mm 2 mps 732 mmHg 88%
12:00 +17°C° 0.2 mm 2 mps 732 mmHg 83%
13:00 +18°C° 0.2 mm 3 mps 732 mmHg 77%
14:00 +19°C° 0.2 mm 3 mps 732 mmHg 71%
15:00 +19°C° 0.5 mm 3 mps 732 mmHg 73%
16:00 +19°C° 0.5 mm 3 mps 732 mmHg 75%
17:00 +19°C° 0.5 mm 3 mps 732 mmHg 77%
18:00 +18°C° 0.5 mm 3 mps 732 mmHg 82%
19:00 +16°C° 0.5 mm 3 mps 732 mmHg 87%
20:00 +14°C° 0.5 mm 3 mps 732 mmHg 92%
21:00 +13°C° 0.1 mm 3 mps 732 mmHg 93%
22:00 +13°C° 0.1 mm 3 mps 733 mmHg 94%
23:00 +12°C° 0.1 mm 3 mps 733 mmHg 94%

3 August, Tuesday

Time Temperature Precipitation Wind Pressure Humidity
00:00 +12°C° 0 mm 3 mps 733 mmHg 94%
01:00 +12°C° 0 mm 3 mps 733 mmHg 93%
02:00 +11°C° 0 mm 4 mps 733 mmHg 92%
03:00 +11°C° 0 mm 4 mps 733 mmHg 92%
04:00 +11°C° 0 mm 4 mps 733 mmHg 91%
05:00 +10°C° 0 mm 4 mps 733 mmHg 91%
06:00 +10°C° 0 mm 5 mps 733 mmHg 88%
07:00 +13°C° 0 mm 6 mps 734 mmHg 85%
08:00 +14°C° 0 mm 6 mps 734 mmHg 83%
09:00 +15°C° 0.1 mm 6 mps 734 mmHg 77%
10:00 +17°C° 0.1 mm 7 mps 735 mmHg 71%
11:00 +18°C° 0.1 mm 7 mps 735 mmHg 66%
12:00 +20°C° 0.3 mm 7 mps 735 mmHg 64%
13:00 +20°C° 0.3 mm 7 mps 735 mmHg 62%
14:00 +21°C° 0.3 mm 6 mps 735 mmHg 60%
15:00 +21°C° 0.2 mm 6 mps 736 mmHg 57%
16:00 +21°C° 0.2 mm 6 mps 736 mmHg 54%
17:00 +21°C° 0.2 mm 5 mps 736 mmHg 51%
18:00 +19°C° 0 mm 5 mps 736 mmHg 61%
19:00 +18°C° 0 mm 4 mps 736 mmHg 71%
20:00 +16°C° 0 mm 3 mps 737 mmHg 80%
21:00 +14°C° 0 mm 3 mps 737 mmHg 84%
22:00 +14°C° 0 mm 2 mps 737 mmHg 88%
23:00 +13°C° 0 mm 2 mps 738 mmHg 91%

4 August, Wednesday

Time Temperature Precipitation Wind Pressure Humidity
00:00 +12°C° 0 mm 2 mps 738 mmHg 90%
01:00 +12°C° 0 mm 2 mps 738 mmHg 89%
02:00 +12°C° 0 mm 1 mps 738 mmHg 88%
03:00 +12°C° 0 mm 1 mps 738 mmHg 86%
04:00 +11°C° 0 mm 0 mps 739 mmHg 84%
05:00 +11°C° 0 mm 0 mps 739 mmHg 82%
06:00 +12°C° 0 mm 0 mps 739 mmHg 78%
07:00 +14°C° 0 mm 0 mps 739 mmHg 73%
08:00 +15°C° 0 mm 0 mps 739 mmHg 69%
09:00 +17°C° 0 mm 0 mps 739 mmHg 63%
10:00 +21°C° 0 mm 1 mps 739 mmHg 58%
11:00 +22°C° 0 mm 1 mps 740 mmHg 53%
12:00 +23°C° 0.1 mm 1 mps 739 mmHg 51%
13:00 +23°C° 0.1 mm 1 mps 739 mmHg 49%
14:00 +24°C° 0.1 mm 1 mps 739 mmHg 48%
15:00 +23°C° 0 mm 1 mps 739 mmHg 51%
16:00 +22°C° 0 mm 1 mps 739 mmHg 55%
17:00 +22°C° 0 mm 1 mps 739 mmHg 59%
18:00 +21°C° 0 mm 1 mps 739 mmHg 63%
19:00 +20°C° 0 mm 1 mps 739 mmHg 66%
20:00 +19°C° 0 mm 1 mps 739 mmHg 70%
21:00 +17°C° 0 mm 2 mps 739 mmHg 72%
22:00 +16°C° 0 mm 2 mps 739 mmHg 75%
23:00 +16°C° 0 mm 2 mps 739 mmHg 77%
Show more